Regional Weather Roundup
Issued by NWS

Home | Current Version | Previous Version | Graphics & Text | Print | Product List | Glossary Off
Versions: 1 2 3 4 5 6 7 8 9 10 11 12 13 14 15 16 17 18 19 20 21 22 23 24 25 26 27 28 29 30 31 32 33 34 35 36 37 38 39 40 41 42 43 44 45 46 47 48 49 50

000
ASUS43 KDMX 221101
RWRIA

WEATHER ROUNDUP FOR IOWA
NATIONAL WEATHER SERVICE DES MOINES IA
600 AM CDT FRI JUN 22 2018

NOTE: "FAIR" INDICATES FEW OR NO CLOUDS BELOW 12,000 FEET WITH NO
SIGNIFICANT WEATHER AND/OR OBSTRUCTIONS TO VISIBILITY.

* - THESE STATIONS ARE NOT NWS STATIONS...THUS NOT UNDER NWS
QUALITY CONTROL.  THEY ALSO DO NOT REPORT WEATHER SUCH
AS PRECIPITATION OR FOG.

IAZ001>003-012>014-020>022-031>034-043>046-221200-
   NORTHWEST IOWA

CITY           SKY/WX    TMP DP  RH WIND       PRES   REMARKS
CARROLL *      CLOUDY    61  61 100 N9        29.89R
CHEROKEE *     CLOUDY    59  58  96 NE6       29.92F
DENISON *      CLOUDY    59  59 100 N7        29.92R
LE MARS *      CLOUDY    59  57  94 NE7       29.93S
ORANGE CITY *  CLOUDY    61  57  88 NE3       29.94S
SHELDON *      CLOUDY    59  59 100 CALM      29.93S
SIOUX CITY     CLOUDY    60  56  86 N8        29.92R
SPENCER        PTCLDY    58  56  93 NW5       29.93S
STORM LAKE *   CLOUDY    57  57 100 N7        29.93R
$$

IAZ055>058-069>071-079>083-090>094-221200-
   SOUTHWEST IOWA

CITY           SKY/WX    TMP DP  RH WIND       PRES   REMARKS
ATLANTIC *     CLOUDY    59  59 100 N6        29.87S
AUDUBON *      CLOUDY    59  55  88 N5        29.89R
CLARINDA *     CLOUDY    63  59  88 N8        29.87R
COUNCIL BLFS * CLOUDY    61 N/A N/A NE13      29.87R
CRESTON *      CLOUDY    59  57  94 N13       29.86S
HARLAN  *        N/A    N/A N/A N/A MISG        N/A
LAMONI         CLOUDY    60  58  92 N10       29.83R
RED OAK *      CLOUDY    61  59  94 N9G15     29.86S
SHENANDOAH *   CLOUDY    63  59  88 N7        29.86S
$$

IAZ047>049-059>061-072>074-084-221200-
   CENTRAL IOWA

CITY           SKY/WX    TMP DP  RH WIND       PRES   REMARKS
AMES           CLOUDY    62  58  86 NE10      29.86R
BOONE *        CLOUDY    61  59  94 NE9       29.86R
CHARITON *     CLOUDY    61  61 100 N7        29.82R FOG
DES MOINES     CLOUDY    63  58  83 NE12      29.83R
GRINNELL*      CLOUDY    61  59  94 N7        29.84R
KNOXVILLE *    CLOUDY    63  61  94 NE8       29.80S
MARSHALLTOWN   CLOUDY    61  61 100 N9        29.84S
NEWTON *       CLOUDY    61  61 100 NE10G17   29.83R
PELLA *        CLOUDY    61  60  96 NE3       29.82S
PERRY *        DRIZZLE   62  61  96 N6        29.86S
$$

IAZ004>006-015-016-023>025-035-036-221200-
   NORTH CENTRAL IOWA

CITY           SKY/WX    TMP DP  RH WIND       PRES   REMARKS
CLARION *      CLOUDY    61  57  88 N6        29.90S
ESTHERVILLE    CLOUDY    58  57  97 NW6       29.92S
FORT DODGE *   LGT RAIN  60  58  92 N7        29.90S
MASON CITY     CLOUDY    59  58  96 N6        29.92R
FOREST CITY *  CLOUDY    59  57  94 N7        29.91S
IOWA FALLS *   CLOUDY    61  59  94 N7        29.89R
$$

IAZ007>011-017>019-026>030-037>042-050>054-066-221200-
   NORTHEAST IOWA

CITY           SKY/WX    TMP DP  RH WIND       PRES   REMARKS
CEDAR RAPIDS   CLOUDY    63  61  93 NE7       29.81R
CHARLES CITY * CLOUDY    59  57  94 N8        29.90R
CLINTON *      CLOUDY    62  61  96 NE10      29.78R FOG
DECORAH *      CLOUDY    61  61 100 N7        29.88R
DUBUQUE        FAIR      61  58  90 N9        29.81R
MONTICELLO *   CLOUDY    63  61  94 N6        29.80R
OELWEIN *      CLOUDY    63  61  94 N10       29.87R
WATERLOO       CLOUDY    60  59  96 N12       29.85R
$$

IAZ064-065-067-068-078-221200-
   EAST CENTRAL IOWA

CITY           SKY/WX    TMP DP  RH WIND       PRES   REMARKS
DAVENPORT      LGT RAIN  62  60  93 NE12      29.78S
IOWA CITY      CLOUDY    63  61  93 N9        29.81R
MUSCATINE *    LGT RAIN  63  61  94 N9        29.77S
QUAD CITIES    CLOUDY    64  61  90 NE9       29.75R
$$

IAZ062-063-075>077-085>089-095>099-221200-
   SOUTHEAST IOWA

CITY           SKY/WX    TMP DP  RH WIND       PRES   REMARKS
BURLINGTON     CLOUDY    64  63  96 NE14      29.75R FOG
FAIRFIELD *    CLOUDY    63  61  94 NE10      29.78R
FORT MADISON * CLOUDY    64  64 100 N7        29.76R
KEOKUK *       CLOUDY    66  64  94 NE10      29.74R
OSKALOOSA *    CLOUDY    61  60  97 NE12      29.81R
CENTERVILLE *    N/A     61  61 100 N7        29.81R
OTTUMWA        CLOUDY    63  62  97 NE10      29.79R
WASHINGTON *   CLOUDY    63  63 100 NE9       29.79R
$$

ABBREVIATIONS USED IN REMARKS
   TC - TEMPERATURES IN CELSIUS
  WCI - WIND CHILL INDEX
   HX - HEAT INDEX
  VSB - VISIBILITY
$$





USA.gov is the U.S. government's official web portal to all federal, state and local government web resources and services.